Location: Dentlein
(49.1477°N, 10.4231°E)
Time: 14:58:30
(UTC+00:00)

Envisat - Visible Passes

Search period start: 23 July 2024 00:00
Search period end: 02 August 2024 00:00
Orbit: 762 x 764 km, 98.3° (Epoch: 23 July)

Date Brightness Start Highest point End Pass type
(mag) Time Alt. Az. Time Alt. Az. Time Alt. Az.
23 Jul 5.1 01:31:10 10° NE 01:35:01 21° E 01:38:52 10° SE visible
24 Jul 3.3 02:31:56 10° NNE 02:37:01 69° ESE 02:42:04 10° S visible
25 Jul 4.4 01:54:50 10° NNE 01:59:27 34° E 02:04:01 10° SSE visible
26 Jul 5.4 01:18:27 10° NE 01:21:40 17° E 01:24:52 10° SE visible
26 Jul 3.0 02:56:08 10° N 03:01:13 75° WNW 03:06:16 10° SSW visible
27 Jul 3.7 02:18:47 10° NNE 02:23:46 54° E 02:28:43 10° S visible
28 Jul 4.8 01:41:51 10° NE 01:46:08 26° E 01:50:22 10° SSE visible
29 Jul 5.5 01:06:00 10° ENE 01:08:16 13° E 01:10:31 10° ESE visible
29 Jul 3.1 02:42:53 10° NNE 02:48:00 86° ESE 02:53:05 10° SSW visible
30 Jul 4.1 02:05:40 10° NNE 02:10:29 42° E 02:15:17 10° SSE visible
31 Jul 5.1 01:28:58 10° NE 01:32:46 21° E 01:36:33 10° SE visible
31 Jul 3.2 03:07:08 10° N 03:12:09 61° WNW 03:17:07 10° SSW visible
01 Aug 3.3 02:29:41 10° NNE 02:34:46 67° ESE 02:39:49 10° S visible
